Weather History for Scottsdale, AZ

Change the Weather History Date:

Wednesday, May 7, 2014

  Actual Average Record
Temperature  
Mean Temperature 65 °F -  
Max Temperature 73 °F 87 °F 98 °F (1997)
Min Temperature 57 °F 63 °F 35 °F (2000)
Growing Degree Days 15 (Base 50)    
Moisture  
Dew Point 32 °F    
Average Humidity 29    
Maximum Humidity 39    
Minimum Humidity 23    
Precipitation  
Precipitation 0.00 in - - ()
Sea Level Pressure  
Sea Level Pressure 29.79 in    
Wind  
Wind Speed 5 mph (WSW)    
Max Wind Speed 13 mph    
Max Gust Speed 20 mph    
Visibility 10 miles    
Events      
Averages and records for this station are not official NWS values.
T = Trace of Precipitation, MM = Missing Value Source: NWS Daily Summary

Daily Weather History Graph

Daily Weather History Graph

Search for Another Location

Airport:

Trip Planner

Search our weather history database for the weather conditions in past years. The results will help you decide how hot, cold, wet, or windy it might be!

Date:

Astronomy

May. 07, 2014 Rise Set
Actual Time 5:33 AM MST 7:15 PM MST
Civil Twilight 5:06 AM MST 7:42 PM MST
Nautical Twilight 4:34 AM MST 8:15 PM MST
Astronomical Twilight 3:59 AM MST 8:49 PM MST
Moon 12:43 PM MST (5/7) 1:14 AM MST (5/7)
Length of Visible Light 14h 36m
Length of Day
13h 42m
First Quarter, 56% of the Moon is Illuminated
May 7
First Quarter
May 14
Full
May 21
Last Quarter
May 28
New
Jun 5
First Quarter

Hourly Weather History & Observations

Time (MST) Temp. Dew Point Humidity Pressure Visibility Wind Dir Wind Speed Gust Speed Precip Events Conditions
12:53 AM 64.0 °F 28.0 °F 26% 29.68 in 10.0 mi WSW 4.6 mph - N/A   Clear
1:53 AM 63.0 °F 28.9 °F 28% 29.68 in 10.0 mi West 3.5 mph - N/A   Clear
2:53 AM 61.0 °F 30.0 °F 31% 29.69 in 10.0 mi West 6.9 mph - N/A   Clear
3:53 AM 59.0 °F 30.9 °F 35% 29.72 in 10.0 mi Variable 4.6 mph - N/A   Partly Cloudy
4:53 AM 57.9 °F 30.9 °F 36% 29.73 in 10.0 mi West 3.5 mph - N/A   Clear
5:53 AM 57.0 °F 32.0 °F 39% 29.74 in 10.0 mi NW 3.5 mph - N/A   Scattered Clouds
6:53 AM 57.0 °F 32.0 °F 39% 29.77 in 10.0 mi North 4.6 mph - N/A   Clear
7:53 AM 57.9 °F 32.0 °F 37% 29.79 in 10.0 mi West 6.9 mph - N/A   Clear
8:53 AM 60.1 °F 32.0 °F 35% 29.81 in 10.0 mi Calm Calm - N/A   Clear
10:53 AM 66.0 °F 30.9 °F 27% 29.83 in 10.0 mi Variable 4.6 mph - N/A   Clear
11:53 AM 69.1 °F 32.0 °F 25% 29.83 in 10.0 mi West 8.1 mph - N/A   Clear
12:53 PM 70.0 °F 30.9 °F 24% 29.83 in 10.0 mi WSW 9.2 mph - N/A   Overcast
1:53 PM 71.1 °F 33.1 °F 25% 29.83 in 10.0 mi West 12.7 mph 19.6 mph N/A   Overcast
2:53 PM 73.0 °F 34.0 °F 24% 29.83 in 10.0 mi WSW 10.4 mph 19.6 mph N/A   Mostly Cloudy
3:53 PM 73.0 °F 34.0 °F 24% 29.81 in 10.0 mi SSW 11.5 mph 17.3 mph N/A   Scattered Clouds
4:53 PM 73.0 °F 33.1 °F 23% 29.81 in 10.0 mi WSW 5.8 mph - N/A   Partly Cloudy
5:53 PM 73.0 °F 33.1 °F 23% 29.80 in 10.0 mi West 3.5 mph - N/A   Clear
6:53 PM 73.0 °F 33.1 °F 23% 29.80 in 10.0 mi SSW 4.6 mph - N/A   Clear
7:53 PM 71.1 °F 33.1 °F 25% 29.80 in 10.0 mi Calm Calm - N/A   Clear
8:53 PM 69.1 °F 34.0 °F 27% 29.82 in 10.0 mi Calm Calm - N/A   Clear
9:53 PM 66.9 °F 34.0 °F 30% 29.83 in 10.0 mi ESE 3.5 mph - N/A   Clear
10:53 PM 66.9 °F 34.0 °F 30% 29.83 in 10.0 mi Calm Calm - N/A   Clear
11:53 PM 66.0 °F 34.0 °F 30% 29.84 in 10.0 mi Calm Calm - N/A   Clear